Location: ????
(30.1475°N, 31.1342°E)
Time: 08:49:54
(UTC+00:00)

Cosmos 1328 Rocket - Pass Details

Date: 27 September 2022
Orbit: 600 x 627 km, 82.5° (Epoch: 28 November)

Event Time Altitude Azimuth Distance (km) Brightness Sun altitude
Exits shadow 02:38:50 23° 233° (SW) 1,314 4.7 -15.4°
Maximum altitude 02:40:48 33° 280° (W) 1,020 4.1 -15.0°
Drops below altitude 10° 02:44:45 10° 345° (NNW) 1,974 6.1 -14.1°
Sets 02:47:10 0° 355° (N) 2,887 7.0 -13.6°
